Location: Marstown
(39.5056°N, 77.0820°W)
Time: 04:48:07
(UTC-04:00)

HTV-X1 - Visible Passes

Search period start: 08 May 2026 00:00
Search period end: 18 May 2026 00:00
Orbit: 373 x 383 km, 51.6° (Epoch: 8 May)

Date Brightness Start Highest point End Pass type
(mag) Time Alt. Az. Time Alt. Az. Time Alt. Az.
8 May ? 03:04:03 11° NNW 03:05:34 15° NNE 03:07:27 10° ENE visible
8 May ? 04:38:48 10° NW 04:41:54 76° NE 04:45:00 10° SE visible
8 May ? 21:12:02 10° SSW 21:14:47 30° SE 21:17:25 11° ENE visible
8 May ? 22:47:59 10° W 22:49:47 23° WNW 22:49:47 23° WNW visible
9 May ? 03:39:25 19° NNW 03:41:03 33° NNE 03:43:54 10° E visible
9 May ? 05:14:17 10° WNW 05:16:50 23° SW 05:19:23 10° S visible
9 May ? 21:46:44 10° WSW 21:49:46 57° NW 21:52:48 10° NE visible
9 May ? 23:24:36 10° NW 23:26:11 13° NNW 23:26:41 13° N visible
10 May ? 04:16:37 52° S 04:16:37 52° S 04:19:13 10° SE visible
10 May ? 20:45:57 10° SW 20:48:58 54° SE 20:51:59 10° ENE visible
10 May ? 22:22:42 10° WNW 22:25:03 20° NNW 22:27:25 10° NNE visible
11 May ? 21:21:09 10° W 21:24:01 35° NNW 21:26:53 10° NE visible
11 May ? 22:59:40 10° NNW 23:00:36 11° NNW 23:01:33 10° N visible
12 May ? 21:57:27 10° WNW 21:59:22 15° NNW 22:01:18 10° NNE visible
13 May ? 20:55:37 10° W 20:58:13 24° NNW 21:00:49 10° NNE visible
14 May ? 21:32:14 10° NW 21:33:37 12° NNW 21:35:01 10° NNE visible
15 May ? 23:44:34 10° NNW 23:45:24 12° N 23:45:24 12° N visible
16 May ? 21:07:07 10° NNW 21:07:48 11° N 21:08:30 10° N visible
16 May ? 22:44:31 10° N 22:44:51 10° N 22:45:10 10° NNE visible
17 May ? 23:18:11 10° NNW 23:19:45 16° N 23:19:45 16° N visible
